Location: Unspecified
(0.0000°N, 0.0000°E)
Time: 08:32:46
(UTC+00:00)

Gonets-D1 - Visible Passes

Search period start: 10 June 2023 00:00
Search period end: 20 June 2023 00:00
Orbit: 1412 x 1414 km, 82.6° (Epoch: 09 June)

Date Brightness Start Highest point End Pass type
(mag) Time Alt. Az. Time Alt. Az. Time Alt. Az.
15 Jun 11.0 22:12:53 12° N 22:12:53 12° N 22:13:23 10° N visible
17 Jun 10.7 21:45:25 15° N 21:45:25 15° N 21:46:36 10° N visible
18 Jun 10.9 22:28:41 14° NNW 22:28:41 14° NNW 22:29:46 10° NNW visible
19 Jun 10.5 21:17:48 19° NNE 21:17:48 19° NNE 21:19:41 10° NNE visible
